Location: Kellogg
(38.0159°N, 90.0546°W)
Time: 07:16:18
(UTC+00:00)

S-56A Canister/Altair - Pass Details

Date: 14 September 2024
Orbit: 636 x 2487 km, 38.9° (Epoch: 09 October)

Event Time Altitude Azimuth Distance (km) Brightness Sun altitude
Rises 04:28:54 0° 282° (WNW) 4,015 11.6 -44.1°
Reaches altitude 10° 04:31:16 10° 281° (W) 3,254 11.0 -44.4°
Enters shadow 04:34:51 33° 279° (W) 2,247 9.9 -44.7°
Maximum altitude 04:39:44 83° 195° (SSW) 1,699 - -45.2°
Drops below altitude 10° 04:52:33 10° 110° (ESE) 4,757 - -46.2°
Sets 04:56:45 0° 110° (ESE) 5,939 - -46.6°
